timestamp,surface_pressure_avg,surface_temp_avg,battery_voltage,lat,long
2019-06-19 00:00:00+00:00,365.863,7.18,13.21,47.84626,-54.09684
2019-06-19 00:10:00+00:00,365.4996,7.19,13.05,47.84626,-54.09684
2019-06-19 00:20:00+00:00,365.0895,7.2,13.05,47.84626,-54.09684
2019-06-19 00:30:00+00:00,368.6995,7.24,13.05,47.84626,-54.09684
2019-06-19 00:40:00+00:00,368.9097,7.3,13.05,47.84626,-54.09684
2019-06-19 00:50:00+00:00,363.5246,7.37,13.05,47.84626,-54.09684
2019-06-19 01:00:00+00:00,362.5046,7.4,12.97,47.84626,-54.09684
2019-06-19 01:10:00+00:00,365.7429,7.41,12.89,47.84626,-54.09684
2019-06-19 01:20:00+00:00,363.3329,7.48,12.97,47.84626,-54.09684
2019-06-19 01:30:00+00:00,355.9197,7.5,12.97,47.84626,-54.09684
2019-06-19 01:40:00+00:00,353.403,7.54,12.97,47.84626,-54.09684
2019-06-19 01:50:00+00:00,350.9963,7.58,12.97,47.84626,-54.09684
2019-06-19 02:00:00+00:00,346.343,7.59,12.89,47.84626,-54.09684
2019-06-19 02:10:00+00:00,342.1946,7.56,12.81,47.84626,-54.09684
2019-06-19 02:20:00+00:00,337.2745,7.5,12.89,47.84626,-54.09684
2019-06-19 02:30:00+00:00,335.0147,7.5,12.89,47.84626,-54.09684
2019-06-19 02:40:00+00:00,332.663,7.46,12.97,47.84626,-54.09684
2019-06-19 02:50:00+00:00,324.908,7.49,12.97,47.84626,-54.09684
2019-06-19 03:00:00+00:00,316.068,7.48,12.89,47.84626,-54.09684
2019-06-19 03:10:00+00:00,313.393,7.22,12.81,47.84626,-54.09684
2019-06-19 03:20:00+00:00,309.8563,7.0,12.89,47.84626,-54.09684
2019-06-19 03:30:00+00:00,298.248,7.08,12.89,47.84626,-54.09684
2019-06-19 03:40:00+00:00,287.8797,7.13,12.89,47.84626,-54.09684
2019-06-19 03:50:00+00:00,282.5798,7.1,12.97,47.84626,-54.09684
2019-06-19 04:00:00+00:00,272.4497,6.9,12.81,47.84626,-54.09684
2019-06-19 04:10:00+00:00,261.2814,6.8,12.81,47.84626,-54.09684
2019-06-19 04:20:00+00:00,253.6931,6.8,12.89,47.84626,-54.09684
2019-06-19 04:30:00+00:00,244.8714,6.89,12.89,47.84626,-54.09684
2019-06-19 04:40:00+00:00,232.4464,6.9,12.89,47.84626,-54.09684
2019-06-19 04:50:00+00:00,222.2581,6.8,12.89,47.84626,-54.09684
2019-06-19 05:00:00+00:00,216.1198,6.8,12.81,47.84626,-54.09684
2019-06-19 05:10:00+00:00,209.9698,6.87,12.81,47.84626,-54.09684
2019-06-19 05:20:00+00:00,204.4364,6.97,12.89,47.84626,-54.09684
2019-06-19 05:30:00+00:00,200.6881,6.9,12.89,47.84626,-54.09684
2019-06-19 05:40:00+00:00,197.1731,6.89,12.89,47.84626,-54.09684
2019-06-19 05:50:00+00:00,193.2148,6.9,12.89,47.84626,-54.09684
2019-06-19 06:00:00+00:00,189.3715,7.0,12.81,47.84626,-54.09684
2019-06-19 06:10:00+00:00,187.7831,6.9,12.73,47.84626,-54.09684
2019-06-19 06:20:00+00:00,187.0298,6.7,12.81,47.84626,-54.09684
2019-06-19 06:30:00+00:00,186.7214,6.7,12.81,47.84626,-54.09684
2019-06-19 06:40:00+00:00,187.3665,6.7,12.89,47.84626,-54.09684
2019-06-19 06:50:00+00:00,187.5398,6.7,12.89,47.84626,-54.09684
2019-06-19 07:00:00+00:00,187.4831,6.7,12.81,47.84626,-54.09684
2019-06-19 07:10:00+00:00,190.3798,6.7,12.73,47.84626,-54.09684
2019-06-19 07:20:00+00:00,194.2248,6.7,12.81,47.84626,-54.09684
2019-06-19 07:30:00+00:00,196.7548,6.69,12.81,47.84626,-54.09684
2019-06-19 07:40:00+00:00,199.0414,6.5,12.81,47.84626,-54.09684
2019-06-19 07:50:00+00:00,201.6681,6.4,12.81,47.84626,-54.09684
2019-06-19 08:00:00+00:00,204.0748,6.36,12.81,47.84626,-54.09684
2019-06-19 08:10:00+00:00,206.9565,6.3,12.73,47.84626,-54.09684
2019-06-19 08:20:00+00:00,210.8898,6.2,12.81,47.84626,-54.09684
2019-06-19 08:30:00+00:00,212.5198,6.2,12.81,47.84626,-54.09684
2019-06-19 08:40:00+00:00,215.0064,6.18,12.89,47.84626,-54.09684
2019-06-19 08:50:00+00:00,218.9615,6.21,12.89,47.84626,-54.09684
2019-06-19 09:00:00+00:00,222.4147,6.36,12.81,47.84626,-54.09684
2019-06-19 09:10:00+00:00,224.7148,6.47,12.73,47.84626,-54.09684
2019-06-19 09:20:00+00:00,229.0964,6.48,12.89,47.84626,-54.09684
2019-06-19 09:30:00+00:00,233.6381,6.5,12.97,47.84626,-54.09684
2019-06-19 09:40:00+00:00,237.8598,6.5,13.13,47.84626,-54.09684
2019-06-19 09:50:00+00:00,241.0781,6.47,13.29,47.84626,-54.09684
2019-06-19 10:00:00+00:00,245.3864,6.4,13.29,47.84626,-54.09684
2019-06-19 10:10:00+00:00,249.9281,6.3,13.37,47.84626,-54.09684
2019-06-19 10:20:00+00:00,255.7231,6.35,13.76,47.84626,-54.09684
2019-06-19 10:30:00+00:00,260.3898,6.45,13.92,47.84626,-54.09684
2019-06-19 10:40:00+00:00,266.8914,6.58,14.16,47.84626,-54.09684
2019-06-19 10:50:00+00:00,276.4447,6.59,14.4,47.84626,-54.09684
2019-06-19 11:00:00+00:00,285.2781,6.64,14.4,47.84626,-54.09684
2019-06-19 11:10:00+00:00,290.6364,6.77,14.56,47.84626,-54.09684
2019-06-19 11:20:00+00:00,295.8613,6.89,14.72,47.84626,-54.09684
2019-06-19 11:30:00+00:00,303.5364,6.96,14.64,47.84626,-54.09684
2019-06-19 11:40:00+00:00,312.5663,6.98,14.72,47.84626,-54.09684
2019-06-19 11:50:00+00:00,318.4097,7.0,14.72,47.84626,-54.09684
2019-06-19 12:00:00+00:00,321.978,7.0,14.4,47.84626,-54.09684
2019-06-19 12:10:00+00:00,326.2679,6.99,14.4,47.84626,-54.09684
2019-06-19 12:20:00+00:00,328.6964,6.32,14.64,47.84626,-54.09684
2019-06-19 12:30:00+00:00,331.7247,6.13,14.48,47.84626,-54.09684
2019-06-19 12:40:00+00:00,332.4631,6.19,14.64,47.84626,-54.09684
2019-06-19 12:50:00+00:00,332.8297,6.1,14.72,47.84626,-54.09684
2019-06-19 13:00:00+00:00,333.3762,5.8,14.48,47.84626,-54.09684
2019-06-19 13:10:00+00:00,333.3729,5.76,14.56,47.84626,-54.09684
2019-06-19 13:20:00+00:00,332.3512,5.75,14.72,47.84626,-54.09684
2019-06-19 13:30:00+00:00,331.7664,5.79,14.56,47.84626,-54.09684
2019-06-19 13:40:00+00:00,329.4146,5.88,14.48,47.84626,-54.09684
2019-06-19 13:50:00+00:00,325.5164,6.33,14.4,47.84626,-54.09684
2019-06-19 14:00:00+00:00,323.7147,6.62,14.4,47.84626,-54.09684
2019-06-19 14:10:00+00:00,324.8146,6.75,14.56,47.84626,-54.09684
2019-06-19 14:20:00+00:00,322.1547,6.83,14.64,47.84626,-54.09684
2019-06-19 14:30:00+00:00,317.0181,6.9,14.56,47.84626,-54.09684
2019-06-19 14:40:00+00:00,309.793,6.9,14.56,47.84626,-54.09684
2019-06-19 14:50:00+00:00,308.4163,6.7,14.56,47.84626,-54.09684
2019-06-19 15:00:00+00:00,306.2798,6.3,14.4,47.84626,-54.09684
2019-06-19 15:10:00+00:00,302.2063,6.1,14.4,47.84626,-54.09684
2019-06-19 15:20:00+00:00,297.5964,5.8,14.48,47.84626,-54.09684
2019-06-19 15:30:00+00:00,291.8214,5.89,14.32,47.84626,-54.09684
2019-06-19 15:40:00+00:00,283.2731,6.0,14.32,47.84626,-54.09684
2019-06-19 15:50:00+00:00,273.1714,6.0,14.48,47.84626,-54.09684
2019-06-19 16:00:00+00:00,270.233,5.96,14.24,47.84626,-54.09684
2019-06-19 16:10:00+00:00,266.8547,5.7,14.24,47.84626,-54.09684
2019-06-19 16:20:00+00:00,256.0931,5.6,14.32,47.84626,-54.09684
2019-06-19 16:30:00+00:00,242.6898,5.64,14.24,47.84626,-54.09684
2019-06-19 16:40:00+00:00,233.6914,5.68,14.32,47.84626,-54.09684
2019-06-19 16:50:00+00:00,228.1614,5.76,14.32,47.84626,-54.09684
2019-06-19 17:00:00+00:00,222.2164,6.14,14.24,47.84626,-54.09684
2019-06-19 17:10:00+00:00,212.1531,6.52,14.24,47.84626,-54.09684
2019-06-19 17:20:00+00:00,204.2865,6.75,14.24,47.84626,-54.09684
2019-06-19 17:30:00+00:00,200.7331,6.89,14.24,47.84626,-54.09684
2019-06-19 17:40:00+00:00,194.1215,6.99,14.32,47.84626,-54.09684
2019-06-19 17:50:00+00:00,186.5114,7.06,14.24,47.84626,-54.09684
2019-06-19 18:00:00+00:00,184.7498,7.1,14.16,47.84626,-54.09684
2019-06-19 18:10:00+00:00,184.4431,7.1,14.08,47.84626,-54.09684
2019-06-19 18:20:00+00:00,181.9032,7.09,14.24,47.84626,-54.09684
2019-06-19 18:30:00+00:00,182.3431,7.0,14.24,47.84626,-54.09684
2019-06-19 18:40:00+00:00,186.2215,7.0,14.24,47.84626,-54.09684
2019-06-19 18:50:00+00:00,186.2898,7.01,14.24,47.84626,-54.09684
2019-06-19 19:00:00+00:00,187.3482,7.09,14.16,47.84626,-54.09684
2019-06-19 19:10:00+00:00,193.6415,7.1,14.08,47.84626,-54.09684
2019-06-19 19:20:00+00:00,197.4481,7.19,14.08,47.84626,-54.09684
2019-06-19 19:30:00+00:00,198.0798,7.23,14.16,47.84626,-54.09684
2019-06-19 19:40:00+00:00,201.7848,7.27,14.16,47.84626,-54.09684
2019-06-19 19:50:00+00:00,208.2031,7.3,14.16,47.84626,-54.09684
2019-06-19 20:00:00+00:00,213.0748,7.31,14.0,47.84626,-54.09684
2019-06-19 20:10:00+00:00,218.2248,7.4,13.92,47.84626,-54.09684
2019-06-19 20:20:00+00:00,223.9114,7.46,14.0,47.84626,-54.09684
2019-06-19 20:30:00+00:00,227.4764,7.5,14.0,47.84626,-54.09684
2019-06-19 20:40:00+00:00,230.6564,7.57,14.08,47.84626,-54.09684
2019-06-19 20:50:00+00:00,232.9398,7.6,14.0,47.84626,-54.09684
2019-06-19 21:00:00+00:00,235.4481,7.68,13.92,47.84626,-54.09684
2019-06-19 21:10:00+00:00,240.0031,7.7,13.84,47.84626,-54.09684
2019-06-19 21:20:00+00:00,245.7498,7.71,13.84,47.84626,-54.09684
2019-06-19 21:30:00+00:00,248.9847,7.79,13.84,47.84626,-54.09684
2019-06-19 21:40:00+00:00,251.8098,7.87,13.84,47.84626,-54.09684
2019-06-19 21:50:00+00:00,260.3848,7.94,13.84,47.84626,-54.09684
2019-06-19 22:00:00+00:00,269.5097,8.0,13.76,47.84626,-54.09684
2019-06-19 22:10:00+00:00,273.7531,8.1,13.68,47.84626,-54.09684
2019-06-19 22:20:00+00:00,276.6914,8.2,13.68,47.84626,-54.09684
2019-06-19 22:30:00+00:00,285.1347,8.3,13.68,47.84626,-54.09684
2019-06-19 22:40:00+00:00,291.2448,8.37,13.68,47.84626,-54.09684
2019-06-19 22:50:00+00:00,293.6346,8.45,13.6,47.84626,-54.09684
2019-06-19 23:00:00+00:00,302.7247,8.54,13.53,47.84626,-54.09684
2019-06-19 23:10:00+00:00,312.788,8.59,13.37,47.84626,-54.09684
2019-06-19 23:20:00+00:00,319.428,8.65,13.29,47.84626,-54.09684
2019-06-19 23:30:00+00:00,325.3946,8.56,13.29,47.84626,-54.09684
2019-06-19 23:40:00+00:00,334.8947,8.3,13.29,47.84626,-54.09684
2019-06-19 23:50:00+00:00,339.9946,8.38,13.29,47.84626,-54.09684
